Tracking 21472 objects as of 21-Sep-2020
HD Live streaming from Space Station
objects crossing your sky now

CZ-4C DEB

Track CZ-4C DEB now!
10-day predictions


NORAD ID: 38295
Int'l Code: 2010-059E
Perigee: 807.7 km
Apogee: 1,210.6 km
Inclination: 98.6 °
Period: 105.2 minutes
Semi major axis: 7380 km
RCS: 0.0013 m2 (small)
Launch date: November 4, 2010
Source: People's Republic of China (PRC)
Launch site: Taiyaun Space Center, China (TSC)

Note: This is SATELLITE DEBRIS
aabbcc
Your satellite tracking list
Your tracking list is empty




NASA's NSSDC Master Catalog

Two Line Element Set (TLE):
1 38295U 10059E   20265.26213057 +.00000060 +00000-0 +87783-4 0  9996
2 38295 098.6454 268.3430 0272945 355.9170 065.5853 13.69321977381596
Source of the keplerian elements: AFSPC